Regional Weather Roundup
Issued by NWS

Home | Current Version | Previous Version | Graphics & Text | Print | Product List | Glossary On
Versions: 1 2 3 4 5 6 7 8 9 10 11 12 13 14 15 16 17 18 19 20 21 22 23 24 25 26 27 28 29 30 31 32 33 34 35 36 37 38 39 40 41 42 43 44 45 46 47 48 49 50
000
ASUS45 KABQ 191910
RWRNM
NEW MEXICO REGIONAL WEATHER ROUNDUP
NATIONAL WEATHER SERVICE ALBUQUERQUE NM
100 PM MDT THU APR 19 2018

NOTE: "FAIR" MEANS FEW OR NO CLOUDS BELOW 12,000 FEET AGL WITH NO
       SIGNIFICANT WEATHER OR OBSTRUCTIONS TO VISION.

      THIS PRODUCT IS RELEASED AS TWO VERSIONS.  ONE VERSION NEAR
      THE TOP OF THE HOUR CONTAINING PRELIMINARY DATA FROM ALBUQUERQUE
      AND OTHER STATIONS.  A FINAL VERSION WITH ADDITIONAL DATA IS
      ISSUED ABOUT 10 MINUTES AFTER THE HOUR.

NMZ501-503-504-510>518-192000-
NORTHWEST PLATEAU/NORTHCENTRAL MOUNTAINS

CITY           SKY/WX    TMP DP  RH WIND       PRES   REMARKS
FARMINGTON     FAIR      70  12  10 SE20G31   29.95F
LOS ALAMOS     FAIR      58  13  16 S25G32    30.23F
SANTA FE       FAIR      63  15  15 SE29G40   30.20F
TAOS           FAIR      62  12  14 SW26G33   30.20F
ANGEL FIRE     FAIR      53  15  22 S28G35    30.26F

$$
NMZ402-403-502-505>509-192000-
WESTCENTRAL MOUNTAINS/SOUTHWEST MOUNTAINS

CITY           SKY/WX    TMP DP  RH WIND       PRES   REMARKS
GALLUP         FAIR      75  10   8 SW30G39   29.97F
GRANTS         FAIR      65  10  12 SE31G48   30.08F HAZE
SILVER CITY    FAIR      71  14  11 SE17G26   30.13F

$$
NMZ407-409-411-412-192000-
SOUTHERN DESERTS

CITY           SKY/WX    TMP DP  RH WIND       PRES   REMARKS
DEMING         FAIR      78  17  10 SE15G24   30.09F
LAS CRUCES     FAIR      76  21  12 SE22G30   30.12F
HOLLOMAN AFB   FAIR      79  26  14 SE21G31   30.12F
ALAMOGORDO     FAIR      75  28  17 S25G32    30.12F
T OR C         FAIR      74  11   9 S14       30.10F

$$
NMZ519>523-192000-
CENTRAL VALLEYS/CENTRAL HIGHLANDS

CITY           SKY/WX    TMP DP  RH WIND       PRES   REMARKS
ALBUQUERQUE    PTSUNNY   68  15  13 SE15G23   30.13F
DOUBLE EAGLE   PTSUNNY   66  14  13 SE14G20   30.16F
MORIARTY ARPT  FAIR      66  17  15 SE29G35   30.22F
CLINES CORNERS FAIR      60  18  19 SE25G40   30.28F
BELEN          FAIR      72  12  10 S22G32    30.12F
SOCORRO        FAIR      76  13   9 S23G30    30.11F

$$
NMZ524>526-539-540-192000-
SOUTHCENTRAL MOUNTAINS

CITY           SKY/WX    TMP DP  RH WIND       PRES   REMARKS
RUIDOSO        FAIR      57  19  23 SE24G30   30.31F

$$
NMZ527>531-192000-
NORTHEAST HIGHLANDS/NORTHEAST PLAINS

CITY           SKY/WX    TMP DP  RH WIND       PRES   REMARKS
LAS VEGAS      FAIR      57  15  19 S25       30.30F
RATON          FAIR      58  10  15 S30G39    30.25F
CLAYTON        FAIR      60  17  18 S23       30.30F

$$
NMZ532>537-192000-
EASTCENTRAL PLAINS

CITY           SKY/WX    TMP DP  RH WIND       PRES   REMARKS
SANTA ROSA     FAIR      62  19  18 S18G28    30.27F
TUCUMCARI      FAIR      70  21  15 S18G28    30.26F
CANNON AFB     FAIR      67  19  16 S16G33    30.31F
CLOVIS AIRPORT FAIR      67  19  16 SE23G29   30.32F

$$
NMZ028-029-538-192000-
SOUTHEAST PLAINS

CITY           SKY/WX    TMP DP  RH WIND       PRES   REMARKS
ROSWELL        FAIR      72  22  15 SE22G28   30.24F
ARTESIA        FAIR      72  25  17 SE25G39   30.23F
CARLSBAD       FAIR      72  25  17 SE16G33   30.22F
HOBBS          PTSUNNY   68  16  13 SE17G28   30.29F


$$




USA.gov is the U.S. government's official web portal to all federal, state and local government web resources and services.